Voltar ao catálogo

STARLINK-30781

AtivoComunicaçõesVLEO
NORAD 58123·PAYLOAD·🇺🇸 United States

Lançado Oct 22, 2023 de Cape Canaveral Space Force Station

Loading…

Próximas Passagens (próximas 24 horas)

TLE

AtualizadoSource: CelesTrak SupGP

Época: Sep 15, 2026, 02:05 UTC

1 58123C 23162F   26258.08729167  .00061609  00000+0  22311-2 0  2586
2 58123  43.0015 142.7521 0001730 265.5308 125.5156 15.27552072    18

Acompanhe STARLINK-30781 em tempo real com AllMySat

Download on the App Store